Weather Roundup
Issued by NWS Chicago, IL

Home | Current Version | Previous Version | Text Only | Print | Product List | Glossary Off
Versions: 1 2 3 4 5 6 7 8 9 10 11 12 13 14 15 16 17 18 19 20 21 22 23 24 25 26 27 28 29 30 31 32 33 34 35 36 37 38 39 40 41 42 43 44 45 46 47 48 49 50

117
NZUS59 KLOT 280908
HRRLOT

CHICAGO AREA WEATHER ROUNDUP
NATIONAL WEATHER SERVICE CHICAGO/ROMEOVILLE IL
400 AM CDT SAT MAY 28 2016

NOTE: "FAIR" INDICATES FEW OR NO CLOUDS BELOW 12,000 FEET WITH NO
SIGNIFICANT WEATHER AND/OR OBSTRUCTIONS TO VISIBILITY.

* THESE STATIONS ARE NOT UNDER NWS QUALITY CONTROL. THEY ALSO MAY NOT
  REPORT WEATHER SUCH AS PRECIPITATION OR FOG.

ILZ005-006-012>014-019>023-281000-
NORTHEAST ILLINOIS

CITY           SKY/WX    TMP DP  RH WIND       PRES   REMARKS
OHARE          CLOUDY    68  64  87 S8        29.85S
MIDWAY         CLOUDY    71  63  75 SE10      29.85F
AURORA         CLOUDY    71  65  81 S16G23    29.85R
LANSING*       CLOUDY    70  63  79 S10       29.88S
JOLIET*        CLOUDY    71  66  82 S10       29.86R
WAUKEGAN       CLOUDY    66  64  93 SE6       29.85S
DUPAGE AIRPORT CLOUDY    68  63  84 S12       29.84S
WHEELING       CLOUDY    68  64  87 SE9       29.86S
KANKAKEE*      CLOUDY    71  64  77 S13G18    29.88S
MORRIS*        CLOUDY    70  65  84 S13       29.84R
LEWIS AIRPORT* CLOUDY    68  63  82 S13       29.85S
$$

WIZ051-052-058>065-066-070>072-281000-
SOUTHEAST WISCONSIN

CITY           SKY/WX    TMP DP  RH WIND       PRES   REMARKS
MILWAUKEE      CLOUDY    70  64  81 S9        29.84S
KENOSHA*       CLOUDY    69  64  84 S10       29.85S
RACINE*        CLOUDY    63  59  87 S10       29.87R
BURLINGTON     CLOUDY    68  63  84 S8        29.83S HAZE
WAUKESHA       CLOUDY    66  63  88 S7        29.84F
WEST BEND      CLOUDY    68  63  83 S6        29.83F
$$

INZ001>003-010>013-019-020-281000-
NORTHWEST INDIANA

CITY           SKY/WX    TMP DP  RH WIND       PRES   REMARKS
GARY*          MOCLDY    72  71  96 SE9       29.88S
MICHIGAN CITY* NOT AVBL
RENSSELAER*    NOT AVBL
VALPARAISO     CLOUDY    70  64  81 SE8       29.91S
$$

LMZ740>746-281000-
SOUTHERN LAKE MICHIGAN

STATION/POSITION TIME  SKY/WX   TEMP WIND        PRES    VSBY
                                AIR  DIR/SP/G
                 (UTC)          (F)  (DEG/KT/KT) (MB)    (MI)
HARRISON CRIB    0800            67  160/ 14/ 15   N/A
BURNHAM HARBOR   0900            61  130/  6/ 11   N/A
CALUMET HARBOR   0800            70  150/  8/ 11 1011.1F
BURNS HARBOR     0802            71  160/ 10/ 16 1012.5F
MICHIGAN CITY    0800            70  130/  9/ 11   N/A
$$

ABBREVIATIONS USED IN REMARKS
   TC - TEMPERATURE IN CELSIUS
  WCI - WIND CHILL INDEX
   HX - HEAT INDEX
  VSB - VISIBILITY
$$




USA.gov is the U.S. government's official web portal to all federal, state and local government web resources and services.